When you browse on this site, cookies collect data to enhance your experience and personalize the content and advertising you see.
Visit our Privacy Policy to learn more. By continuing to use the site, you agree to this use of cookies and data.
  • In United Kingdom
  • List of Countries
  • For 7 days
  • Water Temperature
  • Weather Map
  • Weather Widgets
  • user-avatar
    Login

    Hourly Weather Aberchirder

    Today, 24 February, Monday

    Time Temperature Precipitation Wind Pressure Humidity
    00:00 0°C° 0 mm 5 mps 750 mmHg 76%
    01:00 0°C° 0 mm 4 mps 749 mmHg 75%
    02:00 0°C° 0 mm 3 mps 749 mmHg 75%
    03:00 +1°C° 0 mm 2 mps 748 mmHg 74%
    04:00 +1°C° 0 mm 2 mps 747 mmHg 73%
    05:00 +1°C° 0 mm 2 mps 746 mmHg 73%
    06:00 +1°C° 0 mm 2 mps 746 mmHg 72%
    07:00 +1°C° 0 mm 3 mps 745 mmHg 76%
    08:00 0°C° 0 mm 5 mps 743 mmHg 79%
    09:00 +1°C° 0 mm 6 mps 742 mmHg 82%
    10:00 0°C° 0.5 mm 7 mps 741 mmHg 83%
    11:00 0°C° 0.5 mm 7 mps 740 mmHg 85%
    12:00 0°C° 0.5 mm 8 mps 739 mmHg 86%
    13:00 -1°C° 1 mm 8 mps 738 mmHg 89%
    14:00 -1°C° 1 mm 8 mps 737 mmHg 92%
    15:00 -1°C° 1 mm 8 mps 736 mmHg 94%
    16:00 -1°C° 0.9 mm 7 mps 735 mmHg 95%
    17:00 -2°C° 0.9 mm 7 mps 735 mmHg 95%
    18:00 -2°C° 0.9 mm 6 mps 735 mmHg 95%
    19:00 -1°C° 0.5 mm 5 mps 735 mmHg 95%
    20:00 0°C° 0.5 mm 3 mps 735 mmHg 95%
    21:00 +1°C° 0.5 mm 2 mps 735 mmHg 95%
    22:00 +2°C° 0.2 mm 1 mps 735 mmHg 96%
    23:00 +2°C° 0.2 mm 1 mps 735 mmHg 96%

    Tomorrow, 25 February, Tuesday

    Time Temperature Precipitation Wind Pressure Humidity
    00:00 +2°C° 0.2 mm 1 mps 735 mmHg 97%
    01:00 +2°C° 0.1 mm 1 mps 734 mmHg 97%
    02:00 +2°C° 0.1 mm 1 mps 734 mmHg 97%
    03:00 -1°C° 0.1 mm 2 mps 733 mmHg 97%
    04:00 -1°C° 0.1 mm 2 mps 733 mmHg 97%
    05:00 -1°C° 0.1 mm 2 mps 732 mmHg 97%
    06:00 +1°C° 0.1 mm 1 mps 732 mmHg 97%
    07:00 -1°C° 0 mm 2 mps 732 mmHg 96%
    08:00 -1°C° 0 mm 2 mps 731 mmHg 94%
    09:00 -1°C° 0 mm 2 mps 731 mmHg 92%
    10:00 +1°C° 0 mm 2 mps 731 mmHg 90%
    11:00 +2°C° 0 mm 2 mps 730 mmHg 88%
    12:00 +2°C° 0 mm 2 mps 730 mmHg 86%
    13:00 +4°C° 0.1 mm 1 mps 730 mmHg 85%
    14:00 +4°C° 0.1 mm 1 mps 729 mmHg 84%
    15:00 +4°C° 0.1 mm 1 mps 729 mmHg 83%
    16:00 +3°C° 0.1 mm 1 mps 729 mmHg 84%
    17:00 +2°C° 0.1 mm 1 mps 729 mmHg 85%
    18:00 +2°C° 0.1 mm 1 mps 729 mmHg 86%
    19:00 +1°C° 0 mm 1 mps 729 mmHg 87%
    20:00 -1°C° 0 mm 2 mps 729 mmHg 87%
    21:00 -1°C° 0 mm 3 mps 729 mmHg 87%
    22:00 -1°C° 0.1 mm 3 mps 730 mmHg 86%
    23:00 -2°C° 0.1 mm 4 mps 730 mmHg 86%

    Day after tomorrow, 26 February, Wednesday

    Time Temperature Precipitation Wind Pressure Humidity
    00:00 -2°C° 0.1 mm 5 mps 731 mmHg 85%
    01:00 -3°C° 0.1 mm 6 mps 731 mmHg 85%
    02:00 -3°C° 0.1 mm 6 mps 731 mmHg 85%
    03:00 -3°C° 0.1 mm 7 mps 732 mmHg 84%
    04:00 -3°C° 0 mm 7 mps 732 mmHg 84%
    05:00 -3°C° 0 mm 7 mps 733 mmHg 84%
    06:00 -4°C° 0 mm 8 mps 733 mmHg 83%
    07:00 -4°C° 0 mm 8 mps 734 mmHg 82%
    08:00 -2°C° 0 mm 8 mps 734 mmHg 81%
    09:00 -2°C° 0 mm 8 mps 735 mmHg 79%
    10:00 -1°C° 0 mm 8 mps 735 mmHg 77%
    11:00 0°C° 0 mm 8 mps 736 mmHg 76%
    12:00 0°C° 0 mm 8 mps 736 mmHg 74%
    13:00 0°C° 0 mm 8 mps 736 mmHg 72%
    14:00 0°C° 0 mm 7 mps 736 mmHg 71%
    15:00 0°C° 0 mm 7 mps 736 mmHg 70%
    16:00 -1°C° 0 mm 7 mps 736 mmHg 74%
    17:00 -2°C° 0 mm 6 mps 736 mmHg 77%
    18:00 -3°C° 0 mm 6 mps 736 mmHg 80%
    19:00 -3°C° 0 mm 6 mps 737 mmHg 81%
    20:00 -4°C° 0 mm 6 mps 737 mmHg 81%
    21:00 -4°C° 0 mm 6 mps 737 mmHg 82%
    22:00 -4°C° 0 mm 5 mps 737 mmHg 82%
    23:00 -4°C° 0 mm 5 mps 736 mmHg 82%

    27 February, Thursday

    Time Temperature Precipitation Wind Pressure Humidity
    00:00 -5°C° 0 mm 5 mps 736 mmHg 82%
    01:00 -5°C° 0 mm 5 mps 736 mmHg 83%
    02:00 -5°C° 0 mm 5 mps 736 mmHg 84%
    03:00 -5°C° 0 mm 5 mps 736 mmHg 84%
    04:00 -5°C° 0 mm 5 mps 735 mmHg 84%
    05:00 -5°C° 0 mm 5 mps 735 mmHg 84%
    06:00 -5°C° 0 mm 5 mps 735 mmHg 84%
    07:00 -4°C° 0 mm 5 mps 735 mmHg 82%
    08:00 -2°C° 0 mm 5 mps 735 mmHg 79%
    09:00 -2°C° 0 mm 5 mps 735 mmHg 77%
    10:00 -2°C° 0 mm 6 mps 735 mmHg 75%
    11:00 -1°C° 0 mm 6 mps 735 mmHg 72%
    12:00 +1°C° 0 mm 6 mps 735 mmHg 70%
    13:00 +1°C° 0.1 mm 6 mps 735 mmHg 70%
    14:00 +1°C° 0.1 mm 6 mps 735 mmHg 70%
    15:00 +1°C° 0.1 mm 6 mps 735 mmHg 70%
    16:00 -1°C° 0.1 mm 6 mps 736 mmHg 74%
    17:00 -2°C° 0.1 mm 6 mps 736 mmHg 78%
    18:00 -2°C° 0.1 mm 5 mps 737 mmHg 81%
    19:00 -2°C° 0 mm 5 mps 737 mmHg 82%
    20:00 -2°C° 0 mm 5 mps 738 mmHg 82%
    21:00 -4°C° 0 mm 5 mps 738 mmHg 83%
    22:00 -4°C° 0 mm 5 mps 738 mmHg 82%
    23:00 -4°C° 0 mm 5 mps 739 mmHg 81%

    28 February, Friday

    Time Temperature Precipitation Wind Pressure Humidity
    00:00 -3°C° 0 mm 4 mps 739 mmHg 80%
    01:00 -3°C° 0 mm 4 mps 739 mmHg 79%
    02:00 -4°C° 0 mm 4 mps 739 mmHg 78%
    03:00 -4°C° 0 mm 3 mps 739 mmHg 77%
    04:00 -4°C° 0 mm 4 mps 739 mmHg 75%
    05:00 -4°C° 0 mm 4 mps 738 mmHg 74%
    06:00 -4°C° 0 mm 4 mps 738 mmHg 73%
    07:00 -4°C° 0 mm 5 mps 738 mmHg 72%
    08:00 -3°C° 0 mm 6 mps 737 mmHg 71%
    09:00 -2°C° 0 mm 7 mps 737 mmHg 70%
    10:00 -1°C° 0 mm 7 mps 736 mmHg 70%
    11:00 -1°C° 0 mm 8 mps 736 mmHg 69%
    12:00 0°C° 0 mm 9 mps 735 mmHg 69%
    13:00 0°C° 0 mm 9 mps 734 mmHg 71%
    14:00 0°C° 0 mm 9 mps 734 mmHg 74%
    15:00 0°C° 0 mm 9 mps 733 mmHg 76%
    16:00 0°C° 0 mm 9 mps 732 mmHg 81%
    17:00 -1°C° 0 mm 9 mps 731 mmHg 86%
    18:00 -1°C° 0 mm 9 mps 731 mmHg 91%
    19:00 -2°C° 0 mm 8 mps 730 mmHg 92%
    20:00 -2°C° 0 mm 7 mps 730 mmHg 93%
    21:00 -2°C° 0 mm 6 mps 729 mmHg 95%
    22:00 -2°C° 0 mm 6 mps 728 mmHg 93%
    23:00 -1°C° 0 mm 7 mps 727 mmHg 92%

    29 February, Saturday

    Time Temperature Precipitation Wind Pressure Humidity
    00:00 -1°C° 0 mm 7 mps 726 mmHg 90%
    01:00 0°C° 0.3 mm 9 mps 724 mmHg 90%
    02:00 0°C° 0.3 mm 10 mps 722 mmHg 91%
    03:00 -1°C° 0.3 mm 12 mps 721 mmHg 91%
    04:00 0°C° 0.8 mm 10 mps 719 mmHg 88%
    05:00 -1°C° 0.8 mm 9 mps 718 mmHg 85%
    06:00 -2°C° 0.8 mm 7 mps 717 mmHg 82%
    07:00 -2°C° 0 mm 8 mps 716 mmHg 82%
    08:00 -2°C° 0 mm 8 mps 716 mmHg 82%
    09:00 -3°C° 0 mm 9 mps 715 mmHg 82%
    10:00 -2°C° 0 mm 8 mps 715 mmHg 82%
    11:00 -1°C° 0 mm 7 mps 714 mmHg 82%
    12:00 +1°C° 0 mm 6 mps 714 mmHg 82%
    13:00 +1°C° 0.1 mm 5 mps 714 mmHg 82%
    14:00 +1°C° 0.1 mm 5 mps 714 mmHg 83%
    15:00 +1°C° 0.1 mm 5 mps 713 mmHg 83%
    16:00 -1°C° 0 mm 6 mps 714 mmHg 84%
    17:00 -1°C° 0 mm 6 mps 714 mmHg 85%
    18:00 -1°C° 0 mm 7 mps 715 mmHg 86%
    19:00 -1°C° 0.1 mm 8 mps 716 mmHg 85%
    20:00 -2°C° 0.1 mm 10 mps 717 mmHg 85%
    21:00 -2°C° 0.1 mm 11 mps 718 mmHg 84%
    22:00 -2°C° 0.6 mm 11 mps 719 mmHg 87%
    23:00 -2°C° 0.6 mm 11 mps 720 mmHg 89%
    Show more